星链-37124(STARLINK-37124)

导读

STARLINK-37124(NORAD编号68283)是SpaceX星链星座中的一颗卫星。星链项目旨在构建全球卫星互联网,该卫星运行于近地轨道,属于星链卫星网络的组成部分,依托星座的激光互联技术,可参与提供全球宽带互联网接入服务。星链卫星普遍配备星间激光终端,支持高速数据传输,该卫星也遵循星链项目的自动碰撞规避等安全设计,以保障轨道运行安全,服务于全球网络覆盖需求。

Basic Information
目录编号:
68283
目录名称:
STARLINK-37124
国际标识:
2026-055X
轨道中心:
EARTH
卫星名称:
星链-37124
卫星全名:
星链-37124(STARLINK-37124)
卫星状态:
在轨 (已飞行83 天)
发射日期:
2026-03-19 UTC
国别 :
美国 (US)
星等 :
--
Orbit Information
数据来源 国际轨道数据 AOE轨道数据
星历时间 2026-06-10T11:47:25+0800
9小时前
查看轨道信息
2026-06-09T11:00:00+0800
1天前
查看轨道信息
半长轴 6840.76km 6840.764km
偏心率 0.0002891 0.0000911
轨道倾角 53.159° 53.167°
近地点辐角 80.610° 125.640°
升交点赤经 250.087° 254.914°
平近点角 279.523° 285.499°
近地点 460.645km 462.003km
远地点 464.601km 463.251km
周期 93.846分钟 93.846分钟
每日圈数 15.344271 15.344259
Detailed Information
固有亮度:
5
最大亮度:
2.5
卫星平台:
Starlink V1.0
覆盖范围:
全球
运营商:
太空探索技术公司
运营商所在国:
美国
制造商(研发单位):
太空探索技术公司
制造商所在国:
美国
使用方式:
暂无
Satellite Introduction
Starlink 计划是 SpaceX 推出的全球卫星互联网项目,通过发射低轨道卫星,为全球尤其是偏远地区提供高速、低延迟的互联网服务。自 2019 年起,Starlink 已部署数千颗卫星,旨在缩小全球数字鸿沟,推动互联网普及。该项目还为军事、航空等行业提供通信支持,带来广泛经济效益。
2D Orbit Map
3D Orbit Map
Orbit Altitude Analysis Chart
Orbit Inclination Analysis Chart
Orbit Comprehensive Analysis Chart
View Comprehensive Chart